Regional Weather Roundup
Issued by NWS Newport/Morehead, NC

Current Version | Previous Version | Graphics & Text | Print | Product List | Glossary Off
Versions: 1 2 3 4 5 6 7 8 9 10 11 12 13 14 15 16 17 18 19 20 21 22 23 24 25 26 27 28 29 30 31 32 33 34 35 36 37 38 39 40 41 42 43 44 45 46 47 48 49 50

000
ASUS42 KMHX 290013
RWRMHX
WEATHER ROUNDUP FOR EASTERN NORTH CAROLINA
NATIONAL WEATHER SERVICE NEWPORT/MOREHEAD CITY NC
800 PM EDT THU JUL 28 2016

NOTE: "FAIR" INDICATES FEW OR NO CLOUDS BELOW 12,000 FEET
WITH NO SIGNIFICANT WEATHER AND/OR OBSTRUCTIONS TO VISIBILITY

NCZ015>017-031-032-045>047-102-103-290100-
NORTH COAST

CITY           SKY/WX    TMP DP  RH WIND       PRES   REMARKS
EDENTON        CLEAR     92  75  56 S9        29.83R HX 102
ELIZABETH CITY CLEAR     91  75  59 S8        29.82R HX 101
KITTY HAWK     CLEAR     92  76  59 S6        29.82F HX 104
MANTEO           N/A     91  77  64 SW14      29.84S HX 104

$$

NCZ045>047-081-094-103-104-290100-
CENTRAL COAST

CITY           SKY/WX    TMP DP  RH WIND       PRES   REMARKS
FRISCO         CLEAR     84  79  85 SW14G20   29.86F

$$

NCZ095-097-098-100-101-290100-
SOUTHERN COAST

CITY           SKY/WX    TMP DP  RH WIND       PRES   REMARKS
BEAUFORT       CLEAR     85  79  82 SW18      29.87S
CEDAR ISLAND   NOT AVBL
JACKSONVILLE   CLEAR     89  73  59 S8        29.86S
PINEY ISLAND   NOT AVBL
WILMINGTON     CLEAR     87  74  64 SW14G23   29.89R


$$

NCZ011>013-027>030-043-044-078>080-089-090>093-098-290100-
COASTAL PLAIN

CITY           SKY/WX    TMP DP  RH WIND       PRES   REMARKS
AHOSKIE        CLEAR     85  76  74 S3        29.82R
CLINTON        CLEAR     91  73  55 SW6       29.86S HX 100
ELIZABETHTOWN  CLEAR     92  71  49 SW5       29.87F
GOLDSBORO      NOT AVBL
GREENVILLE     CLEAR     91  73  55 SW8       29.85S HX 100
HAVELOCK       CLEAR     86  75  69 SW14      29.87S
KENANSVILLE    NOT AVBL
KINSTON        CLEAR     91  68  46 SW8       29.85R
NEW BERN       CLEAR     87  76  69 S6        29.86S
RICHLANDS      CLEAR     88  72  58 S7        29.87S
ROCKY MOUNT    CLEAR     90  73  57 S10       29.82S
WASHINGTON     CLEAR     90  75  62 S6        29.83R HX 100
WHITEVILLE     CLEAR     91  71  52 SW3       29.88S

$$

AMZ130-135-150-152-154-156-158-170-250-252-270-ANZ085-086-088-633-658-670-290100-
MARINE OBSERVATIONS

STATION/POSITION TIME  TEMP    WIND        PRES    WAVE   SWELL
                       AIR SEA DIR/SP/G            HT/PER HT/PER
                 (UTC) (F)     (DEG/KT/KT) (MB)    (FT/S) (FT/S)
CHESAPEAKE LIGHT NOT AVBL
64 E VA BEACH    2350   84 82  190/ 12/ 14 1010.4    2/ 6   2/ 6
DUCK             2300      73                N/A
2 E DUCK         2311      80                N/A     1/ 7
OREGON INLET     2300      84                N/A
13E OREGON INLT  0000      83                N/A     2/ 4   2/ 7
HATTERAS CG      2300      84                N/A
DIAMOND BUOY     2350   87 85  220/ 16/ 19 1011.2    3/ 4   2/ 8
CAPE LOOKOUT     0000   85     220/ 12/ 17 1011.5
BEAUFORT LAB     2300      83                N/A
30 SE NEW RVR IN 2308   86 85  220/ 19/ 25 1011.8
30 SE NEW RVR IN 2325      85                N/A     4/ 5
27 SE WRIGHTSVLE 2308   86 85  210/ 16/ 21 1012.6
5 SE WRIGHTSVLE  2308   84 80  230/ 14/ 19 1012.9
225 S CAPE HAT   2350   84 85  220/  6/ 10 1015.1    3/ 6   3/ 6
41 SE CHARLESTON 2350   86 86  200/ 17/ 21 1013.3    3/ 4   2/ 8

$$



USA.gov is the U.S. government's official web portal to all federal, state and local government web resources and services.